| time (UTC) | temp F | wind direction | speed MPH | gust MPH | rain 1hr in | rain 24hr in | rain mn in | humidity % | barometer mb |
| 20260502220019 | 81 | 274 | 3.0 | 11.0 | 0.00 | 0.00 | 0.00 | 53 | 1011.4 |
| 20260502214518 | 80 | 265 | 4.0 | 13.0 | 0.00 | 0.00 | 0.00 | 54 | 1011.4 |
| 20260502213022 | 81 | 253 | 4.0 | 10.0 | 0.00 | 0.00 | 0.00 | 52 | 1011.7 |
| 20260502211518 | 81 | 183 | 2.0 | 10.0 | 0.00 | 0.00 | 0.00 | 51 | 1011.7 |
| 20260502210015 | 80 | 262 | 3.0 | 9.0 | 0.00 | 0.00 | 0.00 | 51 | 1011.6 |
| 20260502204514 | 80 | 195 | 3.0 | 8.0 | 0.00 | 0.00 | 0.00 | 53 | 1011.7 |
| 20260502203011 | 79 | 201 | 3.0 | 7.0 | 0.00 | 0.00 | 0.00 | 54 | 1011.7 |
| 20260502201505 | 77 | 211 | 1.0 | 8.0 | 0.00 | 0.00 | 0.00 | 56 | 1012.0 |
| 20260502200003 | 75 | 159 | 3.0 | 9.0 | 0.00 | 0.00 | 0.00 | 59 | 1012.4 |
| 20260502194559 | 75 | 71 | 2.0 | 6.0 | 0.00 | 0.00 | 0.00 | 60 | 1012.5 |
| 20260502193058 | 74 | 287 | 4.0 | 8.0 | 0.00 | 0.00 | 0.00 | 62 | 1012.7 |
| 20260502191553 | 72 | 176 | 1.0 | 7.0 | 0.00 | 0.00 | 0.00 | 65 | 1013.0 |
| 20260502190052 | 72 | 260 | 1.0 | 6.0 | 0.00 | 0.00 | 0.00 | 66 | 1013.3 |
| 20260502184602 | 70 | 149 | 4.0 | 8.0 | 0.00 | 0.00 | 0.00 | 69 | 1013.5 |
| 20260502183046 | 69 | 210 | 3.0 | 9.0 | 0.00 | 0.00 | 0.00 | 71 | 1013.6 |
| 20260502181541 | 66 | 256 | 3.0 | 6.0 | 0.00 | 0.00 | 0.00 | 77 | 1013.7 |
| 20260502163029 | 60 | 201 | 0.0 | 2.0 | 0.00 | 0.00 | 0.00 | 87 | 1014.9 |
| 20260502161514 | 60 | 184 | 0.0 | 5.0 | 0.00 | 0.00 | 0.00 | 88 | 1014.8 |
| 20260502151507 | 59 | 129 | 0.0 | 4.0 | 0.00 | 0.00 | 0.00 | 88 | 1014.6 |
| 20260502150109 | 59 | 269 | 1.0 | 4.0 | 0.00 | 0.00 | 0.00 | 88 | 1014.6 |
| 20260502123054 | 59 | 47 | 0.0 | 2.0 | 0.00 | 0.00 | 0.00 | 87 | 1013.7 |
| 20260502121536 | 59 | 62 | 0.0 | 2.0 | 0.00 | 0.00 | 0.00 | 87 | 1013.6 |
| 20260502114527 | 59 | 24 | 1.0 | 4.0 | 0.00 | 0.00 | 0.00 | 87 | 1013.7 |
| 20260502113023 | 59 | 81 | 0.0 | 2.0 | 0.00 | 0.00 | 0.00 | 87 | 1013.6 |
| 20260502111518 | 59 | 117 | 0.0 | 2.0 | 0.00 | 0.00 | 0.00 | 87 | 1013.6 |
| 20260502110014 | 59 | 177 | 3.0 | 5.0 | 0.00 | 0.00 | 0.00 | 87 | 1013.5 |
| 20260502104513 | 59 | 119 | 2.0 | 6.0 | 0.00 | 0.00 | 0.00 | 87 | 1013.4 |
| 20260502103013 | 58 | 156 | 0.0 | 0.0 | 0.00 | 0.00 | 0.00 | 87 | 1013.4 |
| 20260502101511 | 58 | 139 | 0.0 | 0.0 | 0.00 | 0.00 | 0.00 | 87 | 1013.3 |
| 20260502091507 | 58 | 129 | 0.0 | 0.0 | 0.00 | 0.00 | 0.00 | 86 | 1013.2 |
| 20260502090106 | 58 | 129 | 0.0 | 0.0 | 0.00 | 0.00 | 0.00 | 86 | 1013.1 |
| 20260502080107 | 59 | 43 | 0.0 | 0.0 | 0.00 | 0.00 | 0.00 | 85 | 1013.9 |
| 20260502070055 | 59 | 56 | 0.0 | 0.0 | 0.00 | 0.00 | 0.00 | 84 | 1014.1 |
| 20260502064554 | 59 | 56 | 0.0 | 0.0 | 0.00 | 0.00 | 0.00 | 83 | 1013.9 |
| 20260502063053 | 59 | 56 | 0.0 | 0.0 | 0.00 | 0.00 | 0.00 | 82 | 1014.0 |
| 20260502061552 | 59 | 115 | 0.0 | 0.0 | 0.00 | 0.00 | 0.00 | 82 | 1014.0 |
| 20260502060055 | 59 | 115 | 0.0 | 0.0 | 0.00 | 0.00 | 0.00 | 81 | 1014.1 |
| 20260502054550 | 60 | 115 | 0.0 | 0.0 | 0.00 | 0.00 | 0.00 | 81 | 1014.2 |
| 20260502053107 | 60 | 115 | 0.0 | 0.0 | 0.00 | 0.00 | 0.00 | 80 | 1014.0 |
| 20260502051551 | 60 | 115 | 0.0 | 0.0 | 0.00 | 0.00 | 0.00 | 80 | 1014.1 |
| 20260502050049 | 61 | 115 | 0.0 | 0.0 | 0.00 | 0.00 | 0.00 | 80 | 1014.1 |
| 20260502044549 | 61 | 115 | 0.0 | 0.0 | 0.00 | 0.00 | 0.00 | 79 | 1014.0 |
| 20260502043055 | 62 | 139 | 0.0 | 0.0 | 0.00 | 0.00 | 0.00 | 79 | 1014.0 |
| 20260502041548 | 62 | 189 | 0.0 | 2.0 | 0.00 | 0.00 | 0.00 | 79 | 1013.9 |
| 20260502040047 | 62 | 194 | 0.0 | 2.0 | 0.00 | 0.00 | 0.00 | 78 | 1013.7 |
| 20260502034546 | 63 | 219 | 0.0 | 4.0 | 0.00 | 0.00 | 0.00 | 77 | 1013.6 |
| 20260502033050 | 63 | 194 | 2.0 | 6.0 | 0.00 | 0.00 | 0.00 | 76 | 1013.5 |
| 20260502031550 | 64 | 230 | 1.0 | 3.0 | 0.00 | 0.00 | 0.00 | 74 | 1013.4 |
| 20260502030055 | 65 | 190 | 1.0 | 5.0 | 0.00 | 0.00 | 0.00 | 73 | 1013.3 |
| 20260502024545 | 66 | 237 | 2.0 | 7.0 | 0.00 | 0.00 | 0.00 | 71 | 1013.1 |
| 20260502023103 | 66 | 201 | 1.0 | 9.0 | 0.00 | 0.00 | 0.00 | 70 | 1012.8 |
| 20260502021545 | 68 | 149 | 2.0 | 8.0 | 0.00 | 0.00 | 0.00 | 68 | 1012.7 |
| 20260502020042 | 68 | 184 | 2.0 | 7.0 | 0.00 | 0.00 | 0.00 | 67 | 1012.5 |
| 20260502014542 | 69 | 181 | 4.0 | 11.0 | 0.00 | 0.00 | 0.00 | 66 | 1012.3 |
| 20260502013041 | 71 | 160 | 5.0 | 11.0 | 0.00 | 0.00 | 0.00 | 64 | 1012.1 |
| 20260502011543 | 72 | 215 | 4.0 | 9.0 | 0.00 | 0.00 | 0.00 | 62 | 1011.9 |
| 20260502010037 | 73 | 166 | 3.0 | 10.0 | 0.00 | 0.00 | 0.00 | 60 | 1011.9 |
| 20260502004543 | 74 | 177 | 6.0 | 12.0 | 0.00 | 0.00 | 0.00 | 59 | 1011.7 |
| 20260502003040 | 75 | 193 | 7.0 | 15.0 | 0.00 | 0.00 | 0.00 | 57 | 1011.5 |
| 20260502001534 | 76 | 156 | 5.0 | 15.0 | 0.00 | 0.00 | 0.00 | 55 | 1011.5 |
| 20260502000033 | 78 | 209 | 4.0 | 9.0 | 0.00 | 0.00 | 0.00 | 52 | 1011.5 |
| 20260501234532 | 79 | 192 | 2.0 | 8.0 | 0.00 | 0.00 | 0.00 | 51 | 1011.4 |
| 20260501233031 | 79 | 171 | 3.0 | 7.0 | 0.00 | 0.00 | 0.00 | 51 | 1011.4 |
| 20260501231533 | 79 | 182 | 3.0 | 9.0 | 0.00 | 0.00 | 0.00 | 50 | 1011.4 |
| 20260501230028 | 79 | 220 | 3.0 | 10.0 | 0.00 | 0.00 | 0.00 | 51 | 1011.5 |
| 20260501224531 | 79 | 222 | 4.0 | 10.0 | 0.00 | 0.00 | 0.00 | 49 | 1011.7 |
| 20260501223033 | 79 | 173 | 6.0 | 11.0 | 0.00 | 0.00 | 0.00 | 50 | 1011.8 |
| 20260501221525 | 80 | 215 | 5.0 | 11.0 | 0.00 | 0.00 | 0.00 | 49 | 1012.0 |